Regional Weather Roundup
Issued by NWS

Home | Current Version | Previous Version | Text Only | Print | Product List | Glossary Off
Versions: 1 2 3 4 5 6 7 8 9 10 11 12 13 14 15 16 17 18 19 20 21 22 23 24 25 26 27 28 29 30 31 32 33 34 35 36 37 38 39 40 41 42 43 44 45 46 47 48 49 50

000
ASUS45 KABQ 180010
RWRNM
NEW MEXICO REGIONAL WEATHER ROUNDUP
NATIONAL WEATHER SERVICE ALBUQUERQUE NM
500 PM MST FRI NOV 17 2017

NOTE: "FAIR" MEANS FEW OR NO CLOUDS BELOW 12,000 FEET AGL WITH NO
       SIGNIFICANT WEATHER OR OBSTRUCTIONS TO VISION.

      THIS PRODUCT IS RELEASED AS TWO VERSIONS.  ONE VERSION NEAR
      THE TOP OF THE HOUR CONTAINING PRELIMINARY DATA FROM ALBUQUERQUE
      AND OTHER STATIONS.  A FINAL VERSION WITH ADDITIONAL DATA IS
      ISSUED ABOUT 10 MINUTES AFTER THE HOUR.

NMZ501-503-504-510>518-180100-
NORTHWEST PLATEAU/NORTHCENTRAL MOUNTAINS

CITY           SKY/WX    TMP DP  RH WIND       PRES   REMARKS
FARMINGTON     FAIR      57  35  43 W20G37    29.87F
6HR MIN TEMP:  57; 6HR MAX TEMP:  60; 6HR PCP: TRACE;

LOS ALAMOS     MOCLDY    52  35  52 W17G30    29.98S
SANTA FE       CLOUDY    57  36  45 W12       29.96S
6HR MIN TEMP:  57; 6HR MAX TEMP:  65;

TAOS           CLOUDY    48  37  65 SW14G25   29.96F
ANGEL FIRE     CLOUDY    41  36  82 SW12G29   29.97F

$$
NMZ402-403-502-505>509-180100-
WESTCENTRAL MOUNTAINS/SOUTHWEST MOUNTAINS

CITY           SKY/WX    TMP DP  RH WIND       PRES   REMARKS
GALLUP         LGT RAIN  46  43  89 SW9       30.04F
6HR MIN TEMP:  46; 6HR MAX TEMP:  59; 6HR PCP:  0.06;

GRANTS         MOCLDY    51  39  63 NW15G21   30.06S
SILVER CITY    FAIR      67  19  15 W18G24    30.04S

$$
NMZ407-409-411-412-180100-
SOUTHERN DESERTS

CITY           SKY/WX    TMP DP  RH WIND       PRES   REMARKS
DEMING         FAIR      74  18  12 W17G25    29.97F
6HR MIN TEMP:  72; 6HR MAX TEMP:  79;

LAS CRUCES     FAIR      72  18  12 W12       29.99S
HOLLOMAN AFB   FAIR      76  15  10 S14       29.96R
ALAMOGORDO     FAIR      72  23  16 S8        29.96R
T OR C         MOCLDY    76  28  17 W15       29.95R
6HR MIN TEMP:  69; 6HR MAX TEMP:  82;


$$
NMZ519>523-180100-
CENTRAL VALLEYS/CENTRAL HIGHLANDS

CITY           SKY/WX    TMP DP  RH WIND       PRES   REMARKS
ALBUQUERQUE    MOCLDY    64  34  32 W23G35    29.96R
6HR MIN TEMP:  64; 6HR MAX TEMP:  73;

DOUBLE EAGLE   MOCLDY    61  34  36 W24G36    29.99R
MORIARTY ARPT  CLOUDY    63  33  33 W17G25    29.97R
6HR MIN TEMP:  63; 6HR MAX TEMP:  69;

CLINES CORNERS CLOUDY    57  31  37 W17G29    29.99S
6HR MIN TEMP:  57; 6HR MAX TEMP:  63;

BELEN          CLOUDY    64  35  34 W33G55    29.98R HAZE
6HR MIN TEMP:  64; 6HR MAX TEMP:  74;

SOCORRO        FAIR      72  28  19 W20G28    29.93S
6HR MIN TEMP:  66; 6HR MAX TEMP:  80;


$$
NMZ524>526-539-540-180100-
SOUTHCENTRAL MOUNTAINS

CITY           SKY/WX    TMP DP  RH WIND       PRES   REMARKS
RUIDOSO        FAIR      61  19  20 SW31G41   30.00F

$$
NMZ527>531-180100-
NORTHEAST HIGHLANDS/NORTHEAST PLAINS

CITY           SKY/WX    TMP DP  RH WIND       PRES   REMARKS
LAS VEGAS      LGT RAIN  55  35  47 W38G52    29.90F
6HR MIN TEMP:  51; 6HR MAX TEMP:  64; 6HR PCP: TRACE;

RATON          FAIR      51  34  52 SW9       29.81F
6HR MIN TEMP:  51; 6HR MAX TEMP:  68;

CLAYTON        FAIR      61  36  39 W17G25    29.74R
6HR MIN TEMP:  61; 6HR MAX TEMP:  77;


$$
NMZ532>537-180100-
EASTCENTRAL PLAINS

CITY           SKY/WX    TMP DP  RH WIND       PRES   REMARKS
SANTA ROSA     FAIR      69  29  22 W17G23    29.83R
TUCUMCARI      FAIR      73  29  19 W13       29.75S
6HR MIN TEMP:  73; 6HR MAX TEMP:  82;

CANNON AFB     FAIR      73  25  17 W12       29.83R
6HR MIN TEMP:  73; 6HR MAX TEMP:  81;

CLOVIS AIRPORT FAIR      70  28  21 W10       29.82R

$$
NMZ028-029-538-180100-
SOUTHEAST PLAINS

CITY           SKY/WX    TMP DP  RH WIND       PRES   REMARKS
ROSWELL        FAIR      79  31  17 W10       29.81R
6HR MIN TEMP:  71; 6HR MAX TEMP:  89;

ARTESIA        FAIR      77  30  18 SW24G30   29.84R
CARLSBAD       FAIR      76  26  15 SW10      29.85S
6HR MIN TEMP:  74; 6HR MAX TEMP:  84; 6HR PCP: TRACE;

HOBBS          CLEAR     68  30  24 SW9       29.85F


$$



USA.gov is the U.S. government's official web portal to all federal, state and local government web resources and services.